[[{"header":{"parameterUnit":"m.s-1","parameterCategory":1,"la1":30.2991,"la2":30.254,"lo1":-89.0895,"lo2":-89.0444,"dx":0.0017,"dy":0.0017,"nx":28,"ny":28,"refTime":"2022-11-04T21:00:00:Z","depth":0,"parameterNumber":2,"parameterNumberName":"U-component_of_WINDS"},"data":[0,0,0,0,0,0,0,0,0,0,0,0,0,0,0,0,0,0,0,0,0,0,0,0,0,0,0,0,0,0,0,0,0,0,0,0,0,0,0,0,0,0,0,0,0,0,0,0,0,0,0,0,0,0,0,0,0,0,-6.4475,-6.4476,0,-6.4572,-6.4573,-6.4574,-6.4542,-6.454,-6.4538,-6.4536,-6.4632,-6.4636,-6.4641,0,0,0,0,0,0,0,0,0,0,0,0,0,-6.4262,-6.4267,-6.4475,-6.4476,-6.4477,-6.4572,-6.4573,-6.4574,-6.4543,-6.454,-6.4538,-6.4535,-6.4631,-6.4636,-6.4641,0,0,0,0,0,0,0,0,0,0,0,0,0,-6.4356,-6.4268,-6.4475,-6.4473,-6.4474,-6.4571,-6.4573,-6.4575,-6.4543,-6.454,-6.4537,-6.4534,-6.4629,-6.4635,-6.4642,-6.4746,0,0,-6.4663,-6.4665,0,0,0,0,0,0,0,0,-6.4351,-6.4364,-6.4472,-6.4473,-6.4474,-6.4542,-6.4533,-6.4632,-6.4544,-6.4517,-6.4536,-6.4533,-6.4604,-6.4613,-6.4638,-6.475,-6.4754,-6.4663,-6.4667,-6.467,-6.4672,0,0,0,0,0,0,0,-6.4345,-6.436,-6.4513,-6.4474,-6.4475,-6.4468,-6.4477,-6.4552,-6.4577,-6.4519,-6.4517,-6.4529,-6.4604,-6.4631,-6.464,-6.4756,-6.4663,-6.4669,-6.4673,-6.4676,-6.4962,-6.4965,0,0,0,0,0,0,-6.4338,-6.4355,-6.451,-6.4516,-6.4404,-6.4474,-6.4485,-6.4523,-6.4576,-6.4581,-6.4532,-6.4527,-6.4621,-6.4632,-6.4643,-6.4769,-6.467,-6.4676,-6.468,-6.4958,-6.4963,-6.4966,0,0,0,0,0,0,-6.4333,-6.4352,-6.4506,-6.4435,-6.4454,-6.4481,-6.4524,-6.4527,-6.4554,-6.4586,-6.459,-6.4554,-6.4619,-6.4634,-6.4721,-6.4771,-6.4679,-6.4686,-6.4954,-6.496,-6.4964,-6.502,0,0,0,0,0,0,-6.4327,-6.435,-6.4389,-6.4436,-6.4458,-6.4583,-6.4527,-6.4531,-6.4566,-6.4561,-6.4608,-6.4613,-6.4618,-6.4712,-6.4728,-6.4779,-6.4691,-6.495,-6.4956,-6.4963,-6.5014,-6.5027,-6.5038,0,0,0,0,0,-6.432,-6.44,-6.4392,-6.441,-6.4508,-6.4585,-6.4598,-6.4603,-6.457,-6.461,-6.4631,-6.4611,-6.4765,-6.4721,-6.4739,-6.4793,-6.4946,-6.4955,-6.4962,-6.5009,-6.5024,-6.5038,0,0,0,0,0,0,-6.4356,-6.4406,-6.4397,-6.4495,-6.4537,-6.458,-6.4629,-6.4619,-6.467,-6.4663,-6.4667,-6.4678,-6.4769,-6.479,-6.4741,-6.4898,-6.485,-6.4863,-6.4879,-6.4895,-6.4906,-6.4897,-6.4696,0,0,0,0,0,-6.4376,-6.4435,-6.4476,-6.4558,-6.458,-6.4602,-6.4636,-6.4637,-6.468,-6.4697,-6.4724,-6.4766,-6.4824,-6.4861,-6.4916,-6.5019,-6.5029,-6.5066,-6.5078,-6.5087,-6.5096,-6.5154,-6.5171,-6.4993,-6.4993,-6.4993,0,0,-6.4416,-6.4451,-6.4487,-6.4566,-6.4599,-6.466,-6.4616,-6.4683,-6.4728,-6.4706,-6.4791,-6.4814,-6.4861,-6.4957,-6.5001,-6.4978,-6.5149,-6.5098,-6.5105,-6.5109,-6.5164,-6.5181,-6.5196,-6.4998,-6.4997,-6.4996,0,0,-6.452,-6.4553,-6.4626,-6.4661,-6.4712,-6.4727,-6.4745,-6.4792,-6.4806,-6.4892,-6.4878,-6.4933,-6.5032,-6.5067,-6.5097,-6.5223,-6.5206,-6.5241,-6.5301,-6.5358,-6.5371,-6.5384,-6.5428,-6.5443,-6.5251,-6.5251,-6.5251,0,-6.4562,-6.4655,-6.4664,-6.4733,-6.4769,-6.4756,-6.483,-6.4863,-6.4929,-6.4954,-6.4928,-6.5055,-6.5086,-6.5191,-6.5222,-6.5248,-6.5268,-6.5232,-6.5369,-6.5382,-6.5393,-6.5435,-6.5452,-6.5254,-6.5254,-6.5254,-6.5253,0,-6.4705,-6.477,-6.4823,-6.489,-6.4932,-6.5003,-6.5024,-6.5066,-6.5066,-6.5084,-6.5173,-6.5211,-6.5274,-6.53,-6.5299,-6.5407,-6.5391,-6.5368,-6.5319,-6.5414,-6.5453,-6.5469,-6.526,-6.5258,-6.5257,-6.5256,0,0,-6.4827,-6.4903,-6.4922,-6.4953,-6.5012,-6.5062,-6.5135,-6.5199,-6.5235,-6.5283,-6.5343,-6.5431,-6.5411,-6.5446,-6.545,-6.55,-6.5597,-6.5471,-6.5472,-6.5491,-6.5718,-6.5732,-6.5751,-6.5589,-6.5592,-6.5595,-6.5713,0,-6.4935,-6.5062,-6.5076,-6.5189,-6.525,-6.5242,-6.5306,-6.5349,-6.537,-6.5425,-6.5448,-6.5509,-6.5479,-6.55,-6.555,-6.5574,-6.5642,-6.5567,-6.5644,-6.5646,-6.5628,-6.5771,-6.5786,-6.5895,-6.5729,-6.5731,-6.5733,0,-6.5075,-6.513,-6.5251,-6.5305,-6.5331,-6.5387,-6.5449,-6.5502,-6.5552,-6.5564,-6.5607,-6.5606,-6.5681,-6.5634,-6.5738,-6.5687,-6.5721,-6.5739,-6.5743,-6.5747,-6.5692,-6.5777,-6.593,-6.5946,-6.5758,-6.5756,-6.5754,0,-6.5151,-6.5256,-6.5341,-6.5369,-6.5434,-6.5474,-6.5503,-6.555,-6.559,-6.5644,-6.567,-6.5732,-6.5766,-6.5814,-6.5831,-6.5795,-6.5935,-6.5889,-6.5946,-6.5945,-6.5971,-6.5968,-6.6129,-6.5999,-6.5998,-6.5998,-6.5998,0,-6.5267,-6.5341,-6.5377,-6.5429,-6.5512,-6.5529,-6.5611,-6.5638,-6.5681,-6.5739,-6.5738,-6.5792,-6.5812,-6.587,-6.5884,-6.5969,-6.5984,-6.5996,-6.5997,-6.5994,-6.5992,-6.6012,-6.6004,-6.6002,-6.6001,-6.6001,-6.6,0,-6.5363,-6.539,-6.5483,-6.554,-6.5556,-6.5614,-6.5662,-6.5714,-6.5737,-6.5811,-6.5829,-6.5864,-6.5933,-6.5956,-6.6039,-6.6049,-6.6147,-6.6144,-6.613,-6.6129,-6.6184,-6.6177,-6.6361,-6.6385,-6.6241,-6.6242,-6.6243,0,-6.5433,-6.549,-6.5554,-6.5594,-6.5625,-6.5689,-6.573,-6.5751,-6.5793,-6.5858,-6.5902,-6.5971,-6.6027,-6.6138,-6.6171,-6.6235,-6.6232,-6.6292,-6.6241,-6.6236,-6.623,-6.6225,-6.6231,-6.63,-6.6301,-6.6303,-6.6304,0,-6.5555,-6.5567,-6.5627,-6.5693,-6.5743,-6.5795,-6.5846,-6.5879,-6.5907,-6.5956,-6.6028,-6.6072,-6.6159,-6.6227,-6.6294,-6.6324,-6.6319,-6.6321,-6.6337,-6.6331,-6.632,-6.6325,-6.6152,-6.6315,-6.6314,-6.6313,-6.6312,-6.6312,-6.5638,-6.569,-6.5744,-6.5811,-6.5853,-6.5902,-6.5954,-6.5985,-6.6046,-6.6119,-6.6129,-6.6206,-6.6259,-6.6349,-6.6383,-6.6444,-6.6426,-6.645,-6.6456,-6.646,-6.6464,-6.6314,-6.6456,-6.6456,-6.6456,-6.6455,-6.6455,0,-6.5758,-6.5795,-6.5857,-6.593,-6.5984,-6.5979,-6.6036,-6.6081,-6.615,-6.6201,-6.6258,-6.6342,-6.641,-6.6451,-6.652,-6.6561,-6.656,-6.6578,-6.6573,-6.658,-6.6476,-6.6454,-6.6577,-6.6577,-6.6577,-6.6577,-6.6577,-6.6577,-6.5827,-6.5913,-6.5933,-6.6041,-6.6077,-6.6154,-6.6187,-6.6233,-6.6274,-6.6368,-6.6426,-6.6454,-6.6501,-6.6574,-6.6637,-6.6648,-6.6672,-6.6691,-6.6699,-6.66,-6.6587,-6.6575,-6.6554,-6.6697,-6.6697,-6.6798,-6.6799,-6.68]},{"header":{"parameterUnit":"m.s-1","parameterCategory":1,"la1":30.2991,"la2":30.254,"lo1":-89.0895,"lo2":-89.0444,"dx":0.0017,"dy":0.0017,"nx":28,"ny":28,"refTime":"2022-11-04T21:00:00:Z","depth":0,"parameterNumber":3,"parameterNumberName":"V-component_of_WINDS"},"data":[0,0,0,0,0,0,0,0,0,0,0,0,0,0,0,0,0,0,0,0,0,0,0,0,0,0,0,0,0,0,0,0,0,0,0,0,0,0,0,0,0,0,0,0,0,0,0,0,0,0,0,0,0,0,0,0,0,0,2.5369,2.537,0,2.5469,2.547,2.5471,2.5579,2.5581,2.5582,2.5584,2.5681,2.5682,2.5683,0,0,0,0,0,0,0,0,0,0,0,0,0,2.5269,2.5271,2.5368,2.537,2.5371,2.5468,2.547,2.5471,2.5579,2.5581,2.5583,2.5585,2.5681,2.5682,2.5683,0,0,0,0,0,0,0,0,0,0,0,0,0,2.5335,2.5271,2.5368,2.5437,2.5444,2.5468,2.547,2.5472,2.5579,2.5581,2.5583,2.5586,2.568,2.5682,2.5684,2.5647,0,0,2.5689,2.569,0,0,0,0,0,0,0,0,2.5331,2.5338,2.5425,2.5432,2.544,2.5514,2.5471,2.553,2.5578,2.5527,2.5584,2.5587,2.5623,2.563,2.5643,2.5651,2.5656,2.5689,2.569,2.5691,2.5691,0,0,0,0,0,0,0,2.5326,2.5335,2.5408,2.5427,2.5436,2.5462,2.5474,2.5482,2.5561,2.5532,2.554,2.5551,2.5628,2.5641,2.5646,2.5657,2.5689,2.569,2.5691,2.5692,2.5644,2.5642,0,0,0,0,0,0,2.5312,2.533,2.5405,2.5411,2.539,2.5462,2.5475,2.5488,2.5561,2.5574,2.5549,2.5555,2.5637,2.5644,2.565,2.5615,2.5691,2.5692,2.5693,2.5646,2.5644,2.5641,0,0,0,0,0,0,2.5309,2.5318,2.5401,2.5373,2.5386,2.5461,2.5474,2.5489,2.5502,2.5574,2.5588,2.5548,2.5639,2.5648,2.5648,2.5619,2.5693,2.5695,2.5649,2.5646,2.5642,2.5541,0,0,0,0,0,0,2.5306,2.5316,2.5303,2.5372,2.5387,2.5397,2.5473,2.5489,2.5506,2.5515,2.5577,2.5589,2.5642,2.5645,2.565,2.5623,2.5696,2.5652,2.5648,2.5644,2.5547,2.5535,2.5524,0,0,0,0,0,2.5302,2.5268,2.5302,2.531,2.5372,2.5395,2.5404,2.5466,2.5503,2.549,2.5537,2.5587,2.5622,2.5644,2.565,2.5624,2.5654,2.5649,2.5644,2.5553,2.5537,2.5524,0,0,0,0,0,0,2.5191,2.5278,2.5316,2.5304,2.5342,2.5414,2.54,2.5447,2.5474,2.5482,2.5557,2.557,2.5562,2.5593,2.5616,2.5594,2.5645,2.5641,2.5574,2.556,2.5548,2.5541,2.5697,0,0,0,0,0,2.5166,2.5178,2.5254,2.5236,2.5253,2.5323,2.5335,2.5381,2.5422,2.5438,2.5484,2.5521,2.5541,2.5552,2.5574,2.5553,2.5569,2.5538,2.5526,2.5516,2.5511,2.5505,2.5493,2.5624,2.5624,2.5624,0,0,2.5112,2.5162,2.5165,2.5215,2.5249,2.5261,2.5335,2.5343,2.5353,2.5439,2.5443,2.5478,2.5525,2.5515,2.5513,2.5541,2.5479,2.5509,2.5501,2.5502,2.5499,2.5486,2.5475,2.5621,2.5621,2.5622,0,0,2.5021,2.5059,2.505,2.5085,2.5137,2.5185,2.5182,2.5248,2.5276,2.5282,2.5348,2.536,2.5391,2.5423,2.5443,2.5368,2.5416,2.5373,2.5311,2.5304,2.5294,2.5285,2.526,2.525,2.5368,2.5368,2.5368,0,2.4948,2.4969,2.5039,2.5045,2.5065,2.5147,2.5139,2.5168,2.5223,2.5236,2.5267,2.5311,2.5347,2.5348,2.533,2.5343,2.5344,2.5366,2.529,2.5282,2.5275,2.5252,2.5242,2.5362,2.5363,2.5363,2.5364,0,2.4877,2.4891,2.4877,2.4932,2.4952,2.4949,2.502,2.5031,2.5075,2.5119,2.5126,2.5174,2.5208,2.5211,2.5253,2.5218,2.5234,2.5276,2.5329,2.5255,2.5235,2.5227,2.5354,2.5356,2.5358,2.5359,0,0,2.4717,2.4814,2.4808,2.4836,2.4901,2.4913,2.4915,2.4952,2.4961,2.4997,2.5002,2.5029,2.5069,2.5092,2.5139,2.5133,2.5073,2.5176,2.5178,2.5156,2.504,2.5009,2.4997,2.5106,2.5105,2.5104,2.5037,0,2.4638,2.465,2.4715,2.4707,2.4722,2.4801,2.4804,2.4844,2.4886,2.4905,2.4951,2.4969,2.5021,2.5035,2.5033,2.5081,2.5051,2.5087,2.5111,2.5111,2.5098,2.4986,2.4953,2.4887,2.5029,2.5028,2.5027,0,2.4547,2.4582,2.4577,2.4646,2.4654,2.4656,2.4696,2.4712,2.476,2.4792,2.4819,2.4873,2.4881,2.4931,2.4944,2.4967,2.4981,2.5006,2.5005,2.501,2.5064,2.4989,2.4867,2.4858,2.5015,2.5016,2.5017,0,2.4433,2.4478,2.4482,2.4503,2.4583,2.4582,2.4615,2.4667,2.4685,2.472,2.4733,2.4767,2.4786,2.4811,2.4873,2.4904,2.4879,2.4934,2.4905,2.4904,2.4896,2.4896,2.4776,2.4904,2.4904,2.4904,2.4904,0,2.4339,2.4333,2.4432,2.4434,2.4431,2.4506,2.4499,2.454,2.4585,2.4597,2.4667,2.4676,2.4757,2.4775,2.4824,2.4828,2.4835,2.4861,2.4874,2.4855,2.4852,2.4865,2.4872,2.4902,2.4902,2.4903,2.4903,0,2.4211,2.4277,2.4286,2.4363,2.4382,2.4376,2.4442,2.4447,2.4495,2.4508,2.4516,2.459,2.4616,2.4681,2.4722,2.4755,2.4746,2.477,2.473,2.4739,2.4707,2.471,2.4592,2.4581,2.4715,2.4713,2.4712,0,2.4147,2.4145,2.4222,2.4236,2.4267,2.4288,2.4309,2.4383,2.4401,2.4459,2.4457,2.4489,2.4518,2.4556,2.4613,2.4646,2.4671,2.4628,2.4676,2.4659,2.4672,2.4672,2.4673,2.4617,2.4615,2.4614,2.4612,0,2.4027,2.4061,2.4088,2.4128,2.4152,2.4186,2.4224,2.4231,2.4315,2.4332,2.4361,2.4384,2.4429,2.446,2.4503,2.4536,2.4588,2.4597,2.4593,2.4573,2.4551,2.4565,2.4702,2.4599,2.46,2.4601,2.4602,2.4603,2.393,2.3933,2.3989,2.4018,2.4056,2.4091,2.4101,2.4151,2.4177,2.4221,2.4263,2.4287,2.4339,2.4402,2.4432,2.4453,2.4479,2.4472,2.447,2.4468,2.446,2.4548,2.446,2.4461,2.4461,2.4462,2.4462,0,2.3815,2.3856,2.3882,2.3936,2.3959,2.4009,2.4054,2.407,2.4092,2.4136,2.4165,2.4199,2.423,2.4291,2.4328,2.4333,2.4358,2.434,2.4341,2.4348,2.4433,2.4434,2.432,2.432,2.432,2.432,2.432,2.432,2.3758,2.3767,2.3808,2.3836,2.3877,2.3904,2.3926,2.3959,2.3995,2.403,2.4058,2.4098,2.415,2.4192,2.4223,2.424,2.4251,2.4226,2.425,2.4328,2.4342,2.4355,2.4356,2.4227,2.4227,2.4164,2.4163,2.4163]}]]